VOZ12Q YMML-YBSU

Flight info

Callsign VOZ12Q
Flight time 1h 58m
Altitude 37000
Route NONIX H66 IDNER W214 GOMOL Q69 SU
Aircraft B737/M-SDE2E3FGHIRWXY/LB1

Departure

Time 2026-05-04 15:10
Airport Melbourne Airport (YMML)

Arrival

Time 2026-05-04 17:08
Airport Sunshine Coast Airport (YBSU)
Time Latitude Longitude Altitude Speed Heading
2026-05-04 14:58 -37.68598 144.84366 335 ft 0 kts 224°
2026-05-04 15:05 -37.68607 144.84355 333 ft 3 kts 228°
2026-05-04 15:05 -37.68617 144.84321 336 ft 5 kts 265°
2026-05-04 15:05 -37.68608 144.84283 337 ft 4 kts 297°
2026-05-04 15:06 -37.68588 144.84254 338 ft 4 kts 317°
2026-05-04 15:06 -37.68568 144.84226 337 ft 4 kts 303°
2026-05-04 15:06 -37.68559 144.84191 340 ft 4 kts 275°
2026-05-04 15:07 -37.68565 144.84120 346 ft 4 kts 267°
2026-05-04 15:07 -37.68551 144.84093 346 ft 4 kts 336°
2026-05-04 15:07 -37.68531 144.84088 347 ft 0 kts 351°
2026-05-04 15:08 -37.68525 144.84087 343 ft 1 kts 351°
2026-05-04 15:08 -37.68468 144.84076 348 ft 24 kts 352°
2026-05-04 15:09 -37.68042 144.83999 351 ft 98 kts 352°
2026-05-04 15:09 -37.67166 144.83834 398 ft 152 kts 351°
2026-05-04 15:09 -37.66034 144.83619 844 ft 169 kts 351°
2026-05-04 15:10 -37.63683 144.83224 2403 ft 183 kts 343°
2026-05-04 15:10 -37.62314 144.82906 2686 ft 215 kts 342°
2026-05-04 15:10 -37.58984 144.82441 3541 ft 269 kts
2026-05-04 15:11 -37.57185 144.83338 4496 ft 280 kts 21°
2026-05-04 15:11 -37.55484 144.84503 5493 ft 287 kts 27°
2026-05-04 15:11 -37.53789 144.85899 6471 ft 292 kts 31°
2026-05-04 15:11 -37.52105 144.87362 7477 ft 294 kts 32°
2026-05-04 15:12 -37.50415 144.88828 8503 ft 295 kts 32°
2026-05-04 15:12 -37.48718 144.90291 9497 ft 297 kts 31°
2026-05-04 15:12 -37.46994 144.91766 10381 ft 303 kts 31°
2026-05-04 15:12 -37.45201 144.93286 10697 ft 328 kts 31°
2026-05-04 15:13 -37.43232 144.94945 11066 ft 348 kts 31°
2026-05-04 15:13 -37.41189 144.96665 11785 ft 356 kts 31°
2026-05-04 15:13 -37.39113 144.98413 12649 ft 360 kts 31°
2026-05-04 15:13 -37.37021 145.00170 13498 ft 365 kts 31°
2026-05-04 15:14 -37.34880 145.01964 14297 ft 371 kts 30°
2026-05-04 15:14 -37.32740 145.03755 15081 ft 376 kts 30°
2026-05-04 15:14 -37.30543 145.05592 15889 ft 381 kts 30°
2026-05-04 15:14 -37.28308 145.07459 16702 ft 386 kts 30°
2026-05-04 15:15 -37.26080 145.09318 17502 ft 391 kts 30°
2026-05-04 15:15 -37.23794 145.11226 18302 ft 397 kts 30°
2026-05-04 15:15 -37.21467 145.13165 18975 ft 402 kts 31°
2026-05-04 15:16 -37.16756 145.17088 20325 ft 413 kts 31°
2026-05-04 15:16 -37.14342 145.19097 20997 ft 418 kts 31°
2026-05-04 15:16 -37.09452 145.23160 22291 ft 428 kts 31°
2026-05-04 15:17 -37.06965 145.25286 22866 ft 436 kts 34°
2026-05-04 15:17 -37.02230 145.30100 24286 ft 438 kts 38°
2026-05-04 15:17 -36.99860 145.32589 24762 ft 444 kts 37°
2026-05-04 15:18 -36.97488 145.35057 25171 ft 451 kts 38°
2026-05-04 15:18 -36.95052 145.37600 25660 ft 455 kts 38°
2026-05-04 15:18 -36.92605 145.40151 26152 ft 459 kts 37°
2026-05-04 15:19 -36.87641 145.45296 26967 ft 471 kts 37°
2026-05-04 15:19 -36.85103 145.47913 27452 ft 474 kts 37°
2026-05-04 15:19 -36.79988 145.53173 28411 ft 480 kts 37°
2026-05-04 15:20 -36.77405 145.55826 29114 ft 477 kts 36°
2026-05-04 15:20 -36.74824 145.58449 29562 ft 480 kts 37°
2026-05-04 15:20 -36.72224 145.61134 29836 ft 487 kts 36°
2026-05-04 15:20 -36.69628 145.63796 30161 ft 491 kts 36°
2026-05-04 15:21 -36.66975 145.66507 30523 ft 493 kts 35°
2026-05-04 15:21 -36.64306 145.69230 30902 ft 495 kts 35°
2026-05-04 15:21 -36.58994 145.74645 31606 ft 497 kts 34°
2026-05-04 15:22 -36.56303 145.77386 32042 ft 496 kts 34°
2026-05-04 15:22 -36.53630 145.80108 32552 ft 493 kts 33°
2026-05-04 15:22 -36.48370 145.85459 33507 ft 489 kts 32°
2026-05-04 15:23 -36.45722 145.88146 33776 ft 491 kts 32°
2026-05-04 15:23 -36.43100 145.90801 34045 ft 493 kts 32°
2026-05-04 15:23 -36.40432 145.93503 34368 ft 492 kts 32°
2026-05-04 15:23 -36.37801 145.96167 34740 ft 490 kts 32°
2026-05-04 15:24 -36.32513 146.01516 35362 ft 489 kts 32°
2026-05-04 15:24 -36.27252 146.06823 35939 ft 488 kts 32°
2026-05-04 15:25 -36.24624 146.09473 36331 ft 485 kts 32°
2026-05-04 15:25 -36.22013 146.12103 36641 ft 483 kts 33°
2026-05-04 15:25 -36.19395 146.14735 36890 ft 484 kts 33°
2026-05-04 15:26 -36.14141 146.20008 37061 ft 488 kts 32°
2026-05-04 15:26 -36.07153 146.27015 37077 ft 483 kts 32°
2026-05-04 15:27 -35.99372 146.34800 37077 ft 478 kts 32°
2026-05-04 15:28 -35.91637 146.42513 37092 ft 475 kts 32°
2026-05-04 15:29 -35.83909 146.50198 37079 ft 474 kts 32°
2026-05-04 15:30 -35.65986 146.67950 37104 ft 475 kts 32°
2026-05-04 15:31 -35.58216 146.75614 37106 ft 477 kts 32°
2026-05-04 15:32 -35.45254 146.88360 37105 ft 478 kts 31°
2026-05-04 15:34 -35.32290 147.01039 37109 ft 477 kts 31°
2026-05-04 15:34 -35.24522 147.08613 37117 ft 476 kts 31°
2026-05-04 15:35 -35.16753 147.16169 37107 ft 474 kts 31°
2026-05-04 15:36 -35.09008 147.23684 37118 ft 473 kts 31°
2026-05-04 15:36 -35.03858 147.28670 37116 ft 473 kts 31°
2026-05-04 15:37 -34.98699 147.33657 37109 ft 472 kts 30°
2026-05-04 15:37 -34.93577 147.38600 37108 ft 472 kts 30°
2026-05-04 15:38 -34.88440 147.43549 37119 ft 472 kts 30°
2026-05-04 15:38 -34.83282 147.48510 37123 ft 471 kts 30°
2026-05-04 15:39 -34.78123 147.53464 37125 ft 471 kts 30°
2026-05-04 15:40 -34.70406 147.60858 37130 ft 471 kts 30°
2026-05-04 15:40 -34.65261 147.65780 37116 ft 470 kts 30°
2026-05-04 15:41 -34.60156 147.70654 37131 ft 470 kts 30°
2026-05-04 15:41 -34.54987 147.75581 37126 ft 470 kts 30°
2026-05-04 15:42 -34.49869 147.80452 37126 ft 470 kts 30°
2026-05-04 15:42 -34.44732 147.85333 37129 ft 470 kts 30°
2026-05-04 15:43 -34.39567 147.90233 37137 ft 470 kts 30°
2026-05-04 15:43 -34.34428 147.95101 37101 ft 470 kts 29°
2026-05-04 15:44 -34.29309 147.99942 37126 ft 469 kts 29°
2026-05-04 15:44 -34.24142 148.04820 37137 ft 469 kts 29°
2026-05-04 15:45 -34.19026 148.09642 37141 ft 469 kts 29°
2026-05-04 15:45 -34.13859 148.14505 37140 ft 469 kts 29°
2026-05-04 15:46 -34.08725 148.19329 37131 ft 470 kts 29°
2026-05-04 15:46 -34.03545 148.24189 37142 ft 469 kts 29°
2026-05-04 15:47 -33.98384 148.29023 37134 ft 470 kts 29°
2026-05-04 15:47 -33.93244 148.33829 37149 ft 470 kts 29°
2026-05-04 15:48 -33.88066 148.38664 37141 ft 470 kts 29°
2026-05-04 15:48 -33.80340 148.45865 37137 ft 469 kts 28°
2026-05-04 15:49 -33.75185 148.50659 37137 ft 469 kts 29°
2026-05-04 15:49 -33.70000 148.55474 37146 ft 469 kts 28°
2026-05-04 15:50 -33.64870 148.60229 37104 ft 469 kts 28°
2026-05-04 15:50 -33.59693 148.65024 37142 ft 468 kts 28°
2026-05-04 15:51 -33.54550 148.69776 37150 ft 468 kts 28°
2026-05-04 15:51 -33.49369 148.74557 37150 ft 468 kts 28°
2026-05-04 15:52 -33.44218 148.79304 37147 ft 467 kts 28°
2026-05-04 15:52 -33.39083 148.84029 37156 ft 467 kts 28°
2026-05-04 15:53 -33.33954 148.88740 37159 ft 466 kts 28°
2026-05-04 15:53 -33.28780 148.93486 37128 ft 466 kts 28°
2026-05-04 15:54 -33.23656 148.98179 37150 ft 465 kts 28°
2026-05-04 15:54 -33.18503 149.02891 37162 ft 465 kts 27°
2026-05-04 15:55 -33.13396 149.07553 37150 ft 464 kts 28°
2026-05-04 15:55 -33.08243 149.12251 37142 ft 464 kts 27°
2026-05-04 15:56 -33.03132 149.16903 37140 ft 464 kts 27°
2026-05-04 15:56 -32.98020 149.21550 37157 ft 464 kts 27°
2026-05-04 15:57 -32.92862 149.26230 37143 ft 464 kts 27°
2026-05-04 15:57 -32.87741 149.30872 37139 ft 464 kts 27°
2026-05-04 15:58 -32.82605 149.35519 37149 ft 465 kts 27°
2026-05-04 15:58 -32.77439 149.40185 37135 ft 465 kts 27°
2026-05-04 15:59 -32.72298 149.44824 37107 ft 466 kts 26°
2026-05-04 15:59 -32.67122 149.49488 37120 ft 466 kts 26°
2026-05-04 16:00 -32.61978 149.54117 37125 ft 466 kts 26°
2026-05-04 16:00 -32.56821 149.58750 37126 ft 466 kts 26°
2026-05-04 16:01 -32.51597 149.63307 37140 ft 463 kts 23°
2026-05-04 16:01 -32.46781 149.68283 37146 ft 487 kts 41°
2026-05-04 16:02 -32.44442 149.71052 37014 ft 463 kts 21°
2026-05-04 16:02 -32.41713 149.72960 37122 ft 453 kts 16°
2026-05-04 16:02 -32.36318 149.77081 37109 ft 466 kts 23°
2026-05-04 16:03 -32.33700 149.79278 37100 ft 467 kts 23°
2026-05-04 16:03 -32.28392 149.83751 37106 ft 467 kts 22°
2026-05-04 16:04 -32.23076 149.88159 37110 ft 467 kts 22°
2026-05-04 16:04 -32.15072 149.94708 37117 ft 465 kts 22°
2026-05-04 16:05 -32.09774 149.99027 37116 ft 465 kts 22°
2026-05-04 16:06 -32.01801 150.05519 37114 ft 463 kts 22°
2026-05-04 16:07 -31.91192 150.14141 37104 ft 461 kts 21°
2026-05-04 16:08 -31.80651 150.22680 37118 ft 461 kts 21°
2026-05-04 16:09 -31.67414 150.33370 37114 ft 464 kts 20°
2026-05-04 16:10 -31.56747 150.42010 37084 ft 467 kts 20°
2026-05-04 16:11 -31.46129 150.50753 37100 ft 466 kts 20°
2026-05-04 16:12 -31.30178 150.63805 37116 ft 465 kts 20°
2026-05-04 16:13 -31.19582 150.72444 37132 ft 466 kts 20°
2026-05-04 16:14 -31.08951 150.81089 37127 ft 467 kts 19°
2026-05-04 16:15 -31.01224 150.88335 37137 ft 484 kts 28°
2026-05-04 16:16 -30.96251 150.93659 37099 ft 486 kts 28°
2026-05-04 16:17 -30.84575 151.05921 37104 ft 483 kts 27°
2026-05-04 16:18 -30.74549 151.16289 37130 ft 481 kts 27°
2026-05-04 16:19 -30.62091 151.29148 37132 ft 479 kts 27°
2026-05-04 16:20 -30.49655 151.41939 37130 ft 477 kts 27°
2026-05-04 16:22 -30.37234 151.54670 37114 ft 476 kts 27°
2026-05-04 16:23 -30.22396 151.69823 37146 ft 475 kts 27°
2026-05-04 16:25 -30.07460 151.85020 37153 ft 478 kts 27°
2026-05-04 16:26 -29.89911 152.02801 37127 ft 482 kts 28°
2026-05-04 16:28 -29.77307 152.15512 37139 ft 482 kts 28°
2026-05-04 16:29 -29.59706 152.33142 37134 ft 479 kts 28°
2026-05-04 16:31 -29.47114 152.45705 37101 ft 482 kts 28°
2026-05-04 16:32 -29.31909 152.60828 37101 ft 481 kts 28°
2026-05-04 16:33 -29.21822 152.70826 37100 ft 480 kts 28°
2026-05-04 16:34 -29.14238 152.78332 37091 ft 479 kts 28°
2026-05-04 16:35 -28.99199 152.93242 37090 ft 477 kts 28°
2026-05-04 16:36 -28.91693 153.00661 37070 ft 477 kts 28°
2026-05-04 16:37 -28.86603 153.05463 37083 ft 464 kts 20°
2026-05-04 16:37 -28.83869 153.07335 37109 ft 456 kts 17°
2026-05-04 16:38 -28.72784 153.14373 37091 ft 459 kts 17°
2026-05-04 16:39 -28.58773 153.23426 37101 ft 464 kts 17°
2026-05-04 16:40 -28.47552 153.30683 37087 ft 465 kts 17°
2026-05-04 16:41 -28.33470 153.39758 37082 ft 464 kts 17°
2026-05-04 16:43 -28.19410 153.48631 37064 ft 452 kts
2026-05-04 16:43 -28.13537 153.50319 37077 ft 424 kts 353°
2026-05-04 16:43 -28.10666 153.50429 37081 ft 412 kts 347°
2026-05-04 16:45 -27.93390 153.50138 37080 ft 415 kts 347°
2026-05-04 16:46 -27.84672 153.50037 36460 ft 422 kts 347°
2026-05-04 16:46 -27.78843 153.49978 35124 ft 422 kts 348°
2026-05-04 16:47 -27.72934 153.49913 33514 ft 426 kts 348°
2026-05-04 16:47 -27.66960 153.49847 31798 ft 430 kts 350°
2026-05-04 16:48 -27.58013 153.49756 29628 ft 427 kts 351°
2026-05-04 16:48 -27.55046 153.49726 28932 ft 424 kts 351°
2026-05-04 16:49 -27.49183 153.49672 27617 ft 418 kts 352°
2026-05-04 16:49 -27.43405 153.49636 26354 ft 412 kts 352°
2026-05-04 16:50 -27.37720 153.49598 25091 ft 410 kts 353°
2026-05-04 16:50 -27.32023 153.49557 23785 ft 409 kts 353°
2026-05-04 16:51 -27.26334 153.49518 22350 ft 406 kts 354°
2026-05-04 16:51 -27.23520 153.49500 21688 ft 404 kts 354°
2026-05-04 16:51 -27.17927 153.49439 20370 ft 400 kts 354°
2026-05-04 16:52 -27.12385 153.49368 19060 ft 396 kts 354°
2026-05-04 16:52 -27.09633 153.49334 18401 ft 395 kts 354°
2026-05-04 16:53 -27.04197 153.49268 17017 ft 390 kts 355°
2026-05-04 16:53 -26.96148 153.49172 15097 ft 381 kts 356°
2026-05-04 16:54 -26.93507 153.49140 14483 ft 378 kts 356°
2026-05-04 16:55 -26.83313 153.49055 12325 ft 352 kts 357°
2026-05-04 16:55 -26.78493 153.49024 11159 ft 346 kts 357°
2026-05-04 16:56 -26.73802 153.48810 10467 ft 324 kts 343°
2026-05-04 16:56 -26.68435 153.45508 9461 ft 282 kts 326°
2026-05-04 16:57 -26.66799 153.44322 9087 ft 276 kts 326°
2026-05-04 16:57 -26.63623 153.42040 8596 ft 269 kts 326°
2026-05-04 16:58 -26.58894 153.38686 7825 ft 264 kts 327°
2026-05-04 16:58 -26.57362 153.37604 7496 ft 263 kts 327°
2026-05-04 16:59 -26.54278 153.35429 6836 ft 262 kts 328°
2026-05-04 17:00 -26.48097 153.31082 5450 ft 262 kts 328°
2026-05-04 17:00 -26.44732 153.26646 4862 ft 259 kts 293°
2026-05-04 17:01 -26.43412 153.23146 4597 ft 230 kts 280°
2026-05-04 17:01 -26.43550 153.19718 4484 ft 221 kts 263°
2026-05-04 17:02 -26.43814 153.16286 4333 ft 226 kts 263°
2026-05-04 17:02 -26.44081 153.12761 4160 ft 228 kts 263°
2026-05-04 17:03 -26.44233 153.11039 3980 ft 220 kts 258°
2026-05-04 17:03 -26.44575 153.09394 3692 ft 214 kts 253°
2026-05-04 17:03 -26.45293 153.06309 3163 ft 196 kts 252°
2026-05-04 17:04 -26.46210 153.04116 2723 ft 180 kts 229°
2026-05-04 17:04 -26.48004 153.02488 2305 ft 159 kts 199°
2026-05-04 17:05 -26.50137 153.01957 1922 ft 155 kts 178°
2026-05-04 17:05 -26.52072 153.02340 1536 ft 131 kts 159°
2026-05-04 17:06 -26.53636 153.03419 1207 ft 137 kts 144°
2026-05-04 17:06 -26.54391 153.04073 1023 ft 139 kts 143°
2026-05-04 17:07 -26.55865 153.05426 658 ft 137 kts 145°
2026-05-04 17:07 -26.56377 153.05842 524 ft 138 kts 144°
2026-05-04 17:07 -26.57403 153.06694 291 ft 136 kts 144°
2026-05-04 17:07 -26.58158 153.07332 110 ft 135 kts 144°
2026-05-04 17:08 -26.58892 153.07953 23 ft 120 kts 141°
2026-05-04 17:08 -26.59800 153.08724 23 ft 57 kts 143°
2026-05-04 17:08 -26.59986 153.08881 21 ft 24 kts 143°
2026-05-04 17:09 -26.60088 153.08916 20 ft 15 kts 203°
2026-05-04 17:09 -26.60137 153.08846 20 ft 9 kts 232°
2026-05-04 17:09 -26.60188 153.08827 23 ft 8 kts 161°
2026-05-04 17:10 -26.60280 153.08901 20 ft 8 kts 142°
2026-05-04 17:10 -26.60406 153.09011 20 ft 8 kts 142°
2026-05-04 17:11 -26.60448 153.09045 20 ft 7 kts 143°
2026-05-04 17:11 -26.60489 153.09077 20 ft 7 kts 157°
2026-05-04 17:11 -26.60518 153.09003 20 ft 7 kts 256°
2026-05-04 17:12 -26.60527 153.08962 20 ft 3 kts 257°
2026-05-04 17:12 -26.60529 153.08955 20 ft 0 kts 257°